CZ-6A DEB, 55520

Orbit data source: Space-Track

CZ-6A DEB, 55520 is space debris in SSO originally from a launch on Fri, 11 Nov 2022 UTC launched from the Taiyaun Space Center, China (TSC). Debris objects in space refer to the collection of defunct objects orbiting the Earth. Examples of debris include non-operational satellites, rocket bodies, and fragments generated from explosions, collisions, or faulty payload assembly.

Loading next visibility...
Identifier
55520, 2022-151XS
Orbit
SSO
Country
Flag of CNCN / PRC
Related business
Manufacturer
SAST
Mission
Spacecraft
Bus & Motor
Unknown
Mass
Unknown
Launch date (UTC)
2022-11-11 (4 years ago)
Launch vehicle
Unknown
Launch site
Taiyaun Space Center, China (TSC)
Object type
Payload
Rocket body
Debris
Shape & HBR
Unknown shape, 0.1 m
Radar Cross Section
Medium (>0.1 m² and <1 m²)

Expand to show TLE details & history
Last TLE update: 3 days ago

TLE from 3 days ago
0 CZ-6A DEB
1 55520U 22151XS  26170.55212492  .00001359  00000-0  56585-3 0  9994
2 55520  98.9030 216.5475 0071711 178.0010 182.1470 14.26650580181697
Epoch: 2026-06-19T13:15Z
TLE epoch observation values (Epoch: 2026-06-19T13:15:03.593Z)
Latitude
0.00003°
Longitude
110.00306°
Altitude
857.337 km
Speed
7.397 km/s
True Right ascension
14h 26m 11s
True Declination
0° 00' 00"
Sunlit
Object was in full shadow at epoch
Visualization orbit readout
Latitude
Unknown
Longitude
Unknown
Altitude
Unknown
Speed
Unknown
Apparent Right ascension
Unknown
Apparent Declination
Unknown
Sunlit
N/A
Visualization observer readout
Local Sidereal Time
21:34:08
Azimuth
Unknown
Elevation
Unknown
Doppler factor
Unknown
Orbital elements
Apogee altitude
851.583 km
Perigee altitude
748.631 km
Semi-major axis
7,178.244 km
Eccentricity
0.00717
Inclination
98.903°
RAAN
216.5475°
Arg. of periapsis
178.001°
True anomaly
182.11649°
Mean anomaly
182.147°
Eccentric anomaly
182.13172°
Mean motion
3.56875 °/min
Orbital period
100.88 mins
BSTAR
0.00056585
Loading maneuver chart data...
Computing Atmospheric mass density...
Loading historical data...
Loading historical data...
Loading historical data...
Loading historical data...
Loading historical data...
Loading historical data...
Loading historical data...

Documentation

Showing up to 5 results
|